Location: Borotín
(49.5055°N, 14.6142°E)
Time: 17:02:15
(UTC+00:00)

Cosmos 2237 Rocket - Pass Details

Date: 27 May 2022
Orbit: 833 x 851 km, 71.0° (Epoch: 26 June)

Event Time Altitude Azimuth Distance (km) Brightness Sun altitude
Exits shadow 00:56:58 16° 241° (WSW) 2,080 3.7 -14.5°
Maximum altitude 01:01:14 44° 308° (NW) 1,168 3.0 -14.2°
Drops below altitude 10° 01:06:41 10° 20° (NNE) 2,489 6.0 -13.7°
Sets 01:09:17 0° 27° (NNE) 3,429 7.4 -13.5°
